Terminal Aerodrome Forecast
Issued by NWS

Home | Current Version | Previous Version | Text Only | Print | Product List | Glossary On
Versions: 1 2 3 4 5 6 7 8 9 10 11 12 13 14 15 16 17 18 19 20 21 22 23 24
000
FTUS43 KGLD 301120
TAFMCK
TAF
KMCK 301120Z 3012/0112 24010KT P6SM FEW100
     FM301500 23011KT P6SM SKC
     FM301800 21010G20KT P6SM SKC
     FM302200 19006KT P6SM SKC
     FM010400 VRB05KT P6SM BKN150=

USA.gov is the U.S. government's official web portal to all federal, state and local government web resources and services.